Location: Mettmann
(51.2504°N, 6.9754°E)
Time: 12:23:33
(UTC+00:00)

Daily predictions for brighter satellites

Satellite Brightness Start Highest point End
(mag) Time Altitude Azimuth Time Altitude Azimuth Time Altitude Azimuth
Cosmos 2228 Rocket 4.4 19:25:45 10° NNW 19:29:57 44° W 19:34:07 10° SSW
Cosmos 614 Rocket 4.0 19:26:03 10° SSW 19:31:14 88° ESE 19:36:30 10° NNE
Meteor 1-4 Rocket 2.5 19:33:24 10° N 19:36:52 63° ENE 19:40:17 10° SSE
Cosmos 1833 Rocket 2.7 19:31:38 10° SSW 19:37:15 81° ESE 19:42:55 10° NNE
Cosmos 1697 Rocket 3.4 19:31:56 10° NW 19:37:24 54° WSW 19:42:51 10° S
NOSS 3-2 (A) 3.9 19:32:16 10° S 19:37:25 36° ESE 19:43:13 10° NE
Cosmos 1184 Rocket 3.8 19:35:31 10° SSE 19:38:22 27° E 19:41:14 10° NE
SJ-6B 3.8 19:34:38 10° S 19:38:33 50° W 19:42:25 10° NNW
Cosmos 1862 3.8 19:34:43 10° SSW 19:38:45 67° WNW 19:42:49 10° N
USA 267 4.1 19:34:24 10° ENE 19:39:36 25° SE 19:44:47 10° S
Sich 1 3.1 19:35:39 10° S 19:40:05 80° E 19:44:33 10° NNE
H-2A R/B 4.1 19:38:38 10° SSW 19:42:58 28° W 19:47:14 10° NW
SPOT 5 4.4 19:41:19 10° E 19:44:19 18° ENE 19:47:22 10° NNE
Cosmos 389 Rocket 4.3 19:42:24 10° NNW 19:45:31 31° W 19:48:37 10° SSW
Cosmos 405 Rocket 4.1 19:42:50 10° SE 19:45:34 20° E 19:48:21 10° NE
Cosmos 1862 Rocket 3.8 19:41:26 10° N 19:45:51 55° ENE 19:50:12 10° SSE
NOSS 3-2 (C) 4.2 19:42:13 10° SSE 19:46:55 27° ESE 19:52:09 10° ENE
Cosmos 1437 Rocket 4.2 19:44:07 10° NNE 19:47:05 21° ENE 19:49:57 10° ESE
Cosmos 1812 3.9 19:43:30 10° NNW 19:47:11 45° W 19:50:51 10° SSW
SPOT 1/Viking Rocket 4.3 19:45:20 10° SE 19:50:06 37° ENE 19:54:54 10° N
Cosmos 2333 Rocket 4.3 19:47:37 10° NNW 19:51:24 17° NNE 19:55:09 10° ENE
Cosmos 1934 Rocket 4.1 19:45:12 10° S 19:51:27 62° E 19:57:44 10° NNE
ERBS 4.1 19:48:52 10° WNW 19:51:52 31° N 19:54:52 10° ENE
Landsat 7 4.4 19:48:57 10° SE 19:53:26 43° ENE 19:57:57 10° N
Resurs 01 Rocket 1.6 19:49:02 10° SSE 19:53:27 82° ENE 19:57:55 10° NNW
USA 32 4.5 19:49:30 10° SSE 19:54:24 43° E 19:59:20 10° NNE
Meteor 1-27 Rocket 4.3 19:53:10 10° NNW 19:59:02 65° W 20:04:54 10° S
Cosmos 676 Rocket 4.1 19:53:58 10° S 19:59:11 59° ESE 20:04:28 10° NNE
GP-B 3.4 19:55:54 10° NNE 20:00:13 47° E 20:04:31 10° SSE
ERS-1 Rocket 4.0 19:56:12 11° ESE 20:00:22 31° ENE 20:04:46 10° N
Okean 1 4.0 19:59:05 10° N 20:02:55 39° ENE 20:06:08 14° SE
OPS 6432 4.3 20:02:23 10° SW 20:06:22 78° SE 20:09:30 10° NE
SPOT 3 Rocket 4.2 20:04:16 10° S 20:09:22 57° WSW 20:14:31 10° NNW
BREEZE-M DEB (TANK) 1.8 20:07:51 10° W 20:10:40 54° S 20:11:49 20° ESE
Cosmos 468 Rocket 4.1 20:05:38 10° NNW 20:10:58 68° ENE 20:15:29 14° SE
Cosmos 1867 3.5 20:06:56 10° SSW 20:12:22 79° SE 20:17:51 10° NE
Cosmos 1933 Rocket 4.0 20:10:21 10° SSE 20:14:30 42° E 20:18:43 10° NNE
Cosmos 1666 Rocket 3.9 20:10:39 10° SSW 20:14:57 69° WNW 20:19:19 10° N
SL-4 R/B 1.7 20:12:09 10° WSW 20:16:09 80° SSE 20:19:50 10° E
USA 234 3.4 20:10:47 10° ESE 20:17:15 75° NNE 20:23:48 10° WNW
ATLAS 3B R/B 3.9 20:14:38 14° SE 20:17:29 18° ESE 20:21:43 10° ENE
IGS 5A 3.4 20:15:47 14° SSE 20:19:21 70° ENE 20:23:30 10° N
Meteor 2-4 Rocket 4.4 20:15:09 10° N 20:20:27 39° ENE 20:24:17 17° SE
MetOp-B 4.3 20:22:46 10° SSE 20:28:08 77° WSW 20:33:32 10° NNW
Cosmos 1954 Rocket 4.1 20:23:29 10° SSW 20:28:50 86° WNW 20:34:11 10° NNE
SL-16 R/B 2.2 20:24:19 10° NNW 20:30:02 76° ENE 20:34:14 19° SE
Spot 2 Rocket 3.5 20:25:34 13° SSE 20:30:07 87° ENE 20:35:15 10° NNW
Cosmos 2219 Rocket 3.9 20:25:46 10° NNW 20:30:13 23° NE 20:34:39 10° E
CZ-2C R/B 3.9 20:25:27 10° N 20:30:19 42° WNW 20:35:12 10° SW
Okean 1-7 3.2 20:29:04 10° N 20:33:20 55° ENE 20:35:59 21° SSE
Cosmos 1741 Rocket 4.3 20:28:38 10° S 20:33:36 45° ESE 20:38:38 10° NE
Cosmos 1703 Rocket 3.6 20:30:06 10° N 20:34:26 62° ENE 20:37:16 21° SSE
USA 238 DEB 3.6 20:29:42 10° SSW 20:36:20 76° SE 20:43:17 10° NE
ATLAS 5 CENTAUR R/B 2.4 20:34:07 10° NW 20:36:20 38° NE 20:39:34 15° ESE
USA 238 3.6 20:29:50 10° SSW 20:36:27 75° SE 20:43:24 10° NE
Cosmos 1570 Rocket 4.3 20:33:58 10° NNW 20:39:15 59° ENE 20:42:42 22° SE
Meteor 1-18 Rocket 4.2 20:33:53 10° NNW 20:39:30 89° ENE 20:44:01 16° SSE
Cosmos 2082 Rocket 2.8 20:35:53 10° SW 20:41:31 61° NW 20:47:09 10° NNE
Lacrosse 5 2.3 20:37:35 10° WNW 20:42:32 52° SW 20:45:36 22° SSE
Meteor 1-25 Rocket 4.2 20:37:13 10° S 20:42:48 89° WNW 20:48:30 10° NNE
Terra 2.4 20:40:06 21° SE 20:42:51 43° ENE 20:47:22 10° N
Cosmos 1633 Rocket 4.2 20:39:29 10° SSW 20:43:44 44° WNW 20:47:59 10° N
USA 276 2.5 20:43:08 10° W 20:46:14 47° SSW 20:47:07 35° SSE
Cosmos 1238 Rocket 2.2 20:44:12 15° SSW 20:46:31 72° W 20:49:32 10° N
CENTAUR R/B 2.6 20:41:01 10° SSW 20:46:53 59° SE 20:53:52 10° NE
Cosmos 1605 Rocket 4.0 20:41:48 10° S 20:47:55 84° W 20:54:04 10° N
Cosmos 2208 Rocket 4.2 20:42:49 10° NNW 20:48:02 58° ENE 20:51:06 24° SE
Cosmos 1763 Rocket 3.7 20:43:23 10° NNW 20:48:43 73° WSW 20:52:27 20° SSE
Cosmos 2322 Rocket 2.2 20:43:03 10° NNW 20:48:48 84° ENE 20:52:29 23° SSE
Cosmos 2100 Rocket 4.3 20:45:27 19° SSE 20:49:29 46° E 20:55:18 10° NNE
X-37B 2.1 20:47:53 10° WSW 20:50:24 22° SSW 20:50:24 22° SSW
Cosmos 921 Rocket 4.3 20:50:33 10° NW 20:54:20 33° WSW 20:57:43 12° SSW
FALCON 9 DEB 3.3 20:52:08 10° W 20:55:38 73° N 20:58:45 13° ENE
H-2A R/B 3.9 20:51:57 10° N 20:56:02 64° WNW 21:00:07 10° SSW
Cosmos 2237 4.4 20:50:56 10° NNW 20:56:38 64° NE 20:59:59 25° SE
Cosmos 2173 Rocket 4.3 20:52:59 21° SSE 20:56:49 48° E 21:02:39 10° NNE
OBJECT-B 4.0 20:57:52 10° W 20:58:27 10° W 20:59:01 10° WNW
Cosmos 2242 Rocket 4.0 20:54:11 10° NNW 20:58:33 59° W 21:01:46 17° S
Cosmos 2084 Rocket 3.5 20:54:41 10° SSW 20:58:46 52° SE 21:02:58 10° NE
Cosmos 2360 Rocket 2.4 20:53:46 10° NNW 20:59:25 61° NE 21:02:39 25° SE
Cosmos 1500 3.5 20:59:53 35° SE 21:00:55 45° E 21:04:31 10° NNE
Cosmos 44 3.4 20:59:04 10° NW 21:03:57 71° SW 21:06:35 28° SSE
SWARM C 4.4 21:02:10 10° N 21:05:32 78° E 21:06:30 43° SSE
SWARM A 4.1 21:02:16 10° N 21:05:37 86° E 21:06:42 40° S
Cosmos 1602 4.2 21:03:28 12° SSW 21:07:00 61° WNW 21:10:56 10° N
Cosmos 1980 Rocket 4.2 21:03:20 10° NW 21:07:34 22° W 21:11:46 10° SSW
SAR-Lupe-2 3.6 21:05:36 10° NNE 21:09:10 60° ESE 21:10:12 40° SSE
Cosmos 1666 3.7 21:11:57 28° E 21:12:02 28° E 21:15:17 10° NNE
Cosmos 1459 Rocket 4.1 21:08:09 23° SSE 21:12:12 62° E 21:18:30 10° NNE
Cosmos 1242 Rocket 3.7 21:12:51 10° N 21:16:03 28° ENE 21:16:36 27° E
Cosmos 2016 Rocket 4.4 21:13:23 27° SSE 21:16:30 48° E 21:22:35 10° NNE
COSMOS 2428 3.8 21:13:12 10° NNW 21:18:29 36° NE 21:21:52 20° E
Cosmos 44 Rocket 4.4 21:14:34 10° NNW 21:19:13 39° NE 21:22:15 20° E
Cosmos 2221 Rocket 3.8 21:15:36 10° N 21:20:02 58° ENE 21:21:32 38° SE
Cosmos 405 Rocket 4.0 21:17:50 10° SW 21:21:19 37° WNW 21:24:52 10° N
SL-27 R/B 2.3 21:20:03 34° SSW 21:21:22 81° WNW 21:24:41 10° NNE
SPOT 5 2.8 21:19:54 30° S 21:21:57 66° WSW 21:26:23 10° NNW
USA 267 3.2 21:16:51 10° ENE 21:23:24 70° SE 21:29:56 10° SW
Cosmos 1437 Rocket 3.8 21:19:58 10° NNW 21:23:30 37° W 21:25:21 22° SSW
Cosmos 540 Rocket 3.6 21:22:13 10° NNW 21:27:23 66° WSW 21:29:45 32° S
NOSS 3-2 (A) 4.0 21:22:02 10° WSW 21:27:54 63° NW 21:34:43 10° NE
Cosmos 2237 Rocket 4.0 21:23:42 10° NNW 21:28:07 23° NE 21:32:28 10° E
ERBS 3.7 21:25:39 10° NW 21:28:44 35° NNE 21:30:18 22° ENE
Lacrosse 4 Rocket 2.8 21:29:55 23° E 21:29:55 23° E 21:32:19 10° NE
Resurs 01 Rocket 4.3 21:28:17 10° WSW 21:30:33 14° W 21:32:50 10° NW
Cosmos 1271 Rocket 4.1 21:31:48 10° N 21:35:00 25° ENE 21:35:26 24° E
Cosmos 2333 Rocket 2.7 21:31:23 10° NNW 21:37:04 53° NE 21:39:44 30° ESE
NOSS 3-2 (C) 3.6 21:31:13 10° SW 21:37:06 77° NW 21:43:56 10° NE
ERS-1 Rocket 3.8 21:36:12 23° SSW 21:39:01 44° W 21:43:51 10° NNW
Cosmos 2061 Rocket 4.0 21:37:27 32° SSE 21:40:25 68° E 21:46:35 10° NNE
Meteor 1-11 Rocket 3.7 21:42:34 36° SSE 21:44:52 67° E 21:50:39 10° NNE
Cosmos 841 Rocket 4.2 21:40:20 10° NW 21:45:20 47° WSW 21:47:34 29° SSW
Cosmos 1066 Rocket 4.3 21:40:06 10° N 21:45:48 67° ENE 21:47:48 40° SE
Meteor 1-5 Rocket 4.3 21:42:12 25° SSW 21:45:51 87° WNW 21:51:48 10° NNE
Cosmos 2233 Rocket 4.5 21:45:59 34° SE 21:48:04 45° E 21:54:02 10° NNE
Cosmos 1802 Rocket 4.0 21:45:24 27° S 21:49:06 89° ESE 21:55:29 10° N
Okean 3 3.9 21:47:29 10° NNW 21:51:44 58° W 21:52:58 41° SSW
COSMOS 2487 3.4 21:55:26 35° ENE 21:55:26 35° ENE 21:57:46 10° NNE
SL-4 R/B 1.6 21:51:57 10° W 21:55:47 86° NNE 21:55:57 80° ENE
Thor Agena Rocket 4.2 21:53:01 10° NNE 21:57:43 36° E 21:58:13 35° ESE
USA 234 3.6 21:58:07 35° S 22:00:31 50° SW 22:06:53 10° WNW
Cosmos 1816 Rocket 4.4 21:54:23 10° N 22:00:42 86° W 22:03:15 38° S
Spot 4 4.0 22:03:39 48° SE 22:04:46 64° ENE 22:09:33 10° N
Iridium 4 Rocket 3.7 22:05:13 34° SW 22:06:38 48° W 22:10:41 10° N
ATLAS 3B R/B 2.5 22:01:44 16° SSW 22:07:06 75° SE 22:13:46 10° NE
Meteor 1-23 Rocket 4.2 22:06:06 10° NNW 22:11:58 84° W 22:13:53 45° S
Cosmos 1536 2.7 22:12:10 69° SW 22:12:33 78° W 22:16:33 10° N
GENESIS II 4.3 22:09:33 10° NW 22:13:27 66° WSW 22:13:27 66° WSW
SL-16 R/B 4.0 22:09:19 10° NW 22:13:33 22° WSW 22:16:06 16° SW
Cosmos 2219 Rocket 2.2 22:09:21 10° NNW 22:15:04 82° ENE 22:16:46 47° SE
Cosmos 1674 Rocket 3.4 22:13:17 10° NNW 22:17:39 82° W 22:18:08 69° SSW
NOSS 0 Rocket 4.3 22:11:42 10° NNW 22:17:52 57° NE 22:20:36 33° ESE
Terra 3.3 22:18:59 23° SW 22:20:45 29° W 22:24:54 10° NW
Cosmos 2322 3.8 22:16:30 10° NW 22:22:09 67° WSW 22:23:35 49° S
Cosmos 1842 4.2 22:19:52 10° N 22:23:29 37° ENE 22:23:29 37° ENE
EO 1 Del DPAF 4.1 22:20:51 10° NNE 22:23:43 38° ENE 22:23:43 38° ENE
Lacrosse 5 4.1 22:22:33 10° W 22:24:30 12° WSW 22:24:47 12° WSW
Tsikada Rocket 4.2 22:19:34 10° NNW 22:25:52 66° W 22:28:15 39° SSW
Cosmos 1833 4.1 22:24:31 36° SSW 22:26:59 86° WNW 22:32:42 10° NNE
MOS 1-B Rocket 3.7 22:22:19 10° NNE 22:28:00 89° ESE 22:29:54 44° SSW
Cosmos 1503 Rocket 4.4 22:29:01 44° ESE 22:29:19 45° ESE 22:34:25 10° NE
Okean 2 3.8 22:27:42 10° N 22:31:45 52° ENE 22:31:45 52° ENE
Cosmos 2322 Rocket 4.0 22:28:13 10° NW 22:32:09 19° W 22:34:18 16° SW
FALCON 9 DEB 4.0 22:29:21 10° WNW 22:32:01 47° WNW 22:32:01 47° WNW
Cosmos 489 Rocket 4.4 22:27:31 10° NNW 22:33:51 80° WSW 22:35:44 48° S
Meteor 2-11 Rocket 4.4 22:32:28 49° SSE 22:34:02 66° E 22:40:06 10° NNE
Geosat 4.0 22:33:13 58° S 22:34:05 72° WSW 22:39:09 10° NNW
Cosmos 1486 Rocket 3.9 22:33:51 59° S 22:34:50 80° ESE 22:40:04 10° NNE
ALOS 2 2.7 22:35:05 61° E 22:35:26 64° ENE 22:39:48 10° N
Cosmos 1733 Rocket 3.5 22:34:35 48° WSW 22:35:26 57° WNW 22:39:50 10° N
CENTAUR R/B 3.6 22:31:38 10° WSW 22:37:48 49° NNW 22:45:08 10° NE
SL-16 R/B 3.9 22:37:23 10° NNW 22:42:15 28° NE 22:46:18 13° E
Cosmos 2360 Rocket 3.5 22:38:19 10° NW 22:43:02 28° WSW 22:44:24 25° SW
Cosmos 1975 3.6 22:43:45 42° ENE 22:43:45 42° ENE 22:47:04 10° NNE
Meteor 1-21 4.4 22:40:42 10° N 22:46:29 63° ENE 22:47:53 48° SE
Cosmos 1666 4.3 22:46:48 24° W 22:47:36 26° WNW 22:50:51 10° N
Cosmos 1242 Rocket 4.3 22:47:48 10° NW 22:50:37 25° W 22:50:37 25° W
SL-24 DEB 4.4 22:49:00 10° NNE 22:53:43 58° E 22:53:57 57° ESE
Cosmos 773 Rocket 4.2 22:48:43 10° NNW 22:53:50 63° ENE 22:54:50 52° ESE
Cosmos 968 Rocket 3.4 22:58:02 56° SW 22:59:06 78° WNW 23:04:17 10° NNE
Helios 1A 3.6 22:59:36 46° ENE 22:59:48 46° ENE 23:03:52 10° N
Cosmos 1782 Rocket 3.7 23:00:31 61° ENE 23:00:31 61° ENE 23:04:35 10° NNE
Cosmos 44 Rocket 3.6 22:56:06 10° NW 23:00:56 51° WSW 23:00:56 51° WSW
Cosmos 2297 Rocket 3.4 23:02:01 27° ESE 23:02:01 27° ESE 23:06:36 10° NE
COSMOS 2428 2.9 22:57:26 10° NW 23:03:01 54° WSW 23:03:51 49° SW
Cosmos 1743 3.3 23:03:24 54° WNW 23:03:24 54° WNW 23:07:05 10° N
Meteor 2-9 Rocket 4.2 23:03:15 56° SE 23:04:10 65° E 23:09:53 10° NNE
Cosmos 1980 3.7 22:59:04 10° NNW 23:04:47 77° ENE 23:06:09 53° SE
Cosmos 1538 Rocket 4.5 22:59:57 10° NNW 23:05:01 52° ENE 23:06:16 42° ESE
ERBS 4.4 23:01:55 10° WNW 23:03:12 22° WNW 23:03:12 22° WNW
USA 267 3.7 22:59:58 10° ENE 23:06:25 64° NNW 23:12:52 10° W
Lacrosse 4 Rocket 2.3 23:06:12 37° W 23:07:16 46° NW 23:11:20 10° NNE
Cosmos 1908 Rocket 3.6 23:07:34 66° W 23:07:43 66° WNW 23:12:05 10° N
Cosmos 1607 4.5 23:03:26 10° NW 23:09:48 58° NE 23:13:36 25° ESE
Cosmos 1271 Rocket 4.1 23:07:38 10° NNW 23:10:34 30° WNW 23:10:34 30° WNW
Cosmos 2237 Rocket 2.1 23:07:22 10° NNW 23:13:04 82° ENE 23:14:16 57° SE
Cosmos 2219 3.9 23:13:13 37° ESE 23:13:18 37° ESE 23:18:24 10° NE
Cosmos 1544 3.9 23:21:39 48° NW 23:21:39 48° NW 23:24:43 10° N
Cosmos 2333 Rocket 3.1 23:16:02 10° NW 23:21:08 34° WSW 23:21:43 33° WSW
Timation 2 Rocket 3.9 23:26:06 56° SSE 23:27:04 64° ESE 23:33:02 10° NE
Cosmos 1975 Rocket 3.4 23:26:01 10° NNW 23:30:20 56° W 23:30:20 56° W
Cosmos 1674 4.3 23:29:57 10° N 23:33:07 27° ENE 23:33:07 27° ENE
Cosmos 1300 Rocket 4.0 23:34:20 50° E 23:34:20 50° E 23:38:15 10° NNE
Cosmos 1354 Rocket 4.2 23:33:47 52° WSW 23:34:56 69° WNW 23:40:17 10° NNE
Cosmos 1464 Rocket 4.0 23:39:31 52° SSW 23:41:08 77° W 23:47:20 10° N
Cosmos 1680 Rocket 4.4 23:40:11 10° NNW 23:45:11 42° ENE 23:47:20 28° ESE
Helios 1B rocket 3.7 23:41:44 10° NNE 23:45:01 31° E 23:45:01 31° E
CZ-2D R/B 4.3 23:43:19 10° NE 23:46:24 15° E 23:48:16 13° ESE
Cosmos 1707 3.2 23:44:02 10° NNW 23:47:18 57° NW 23:47:18 57° NW
Okean 2 Rocket 3.0 23:50:16 80° E 23:50:16 80° E 23:54:45 10° NNE
Nadezhda 4 Rocket 4.0 23:44:17 10° NNW 23:50:34 73° W 23:52:00 54° SSW
Okean 1 Rocket 4.3 23:51:41 30° E 23:51:47 30° E 23:55:35 10° NNE
Cosmos 2227 Rocket 2.4 23:51:25 50° SE 23:51:59 52° ESE 23:57:29 10° NE
Cosmos 1777 Rocket 3.9 23:52:43 68° SSE 23:53:16 75° ESE 23:58:34 10° NNE
Cosmos 1025 Rocket 3.0 23:49:17 10° NNW 23:53:18 75° NW 23:53:18 75° NW
SJ 16-02 2.9 23:55:08 24° E 23:55:08 24° E 23:58:29 10° NE
